Main page
METAR-TAF:

METAR-TAF

Airports :

Fernandina Beach Municipal Airport

Fernandina Beach, Florida, United States

latitude: 30-36-43N, longitude: 081-27-40W, elevation: 16 ft

Current weather observation

The report was made 31 minutes ago, at 08:55 UTC
Wind 7 mph from the North/Northwest
Temperature 66°F
Humidity 88%
Pressure 29.97 in. Hg
Visibility: 10 miles
Clear sky

METAR: KFHB 240855Z AUTO 33006KT 10SM CLR 19/17 A2997 RMK AO2 T01900166

Time: 05:26 (09:26 UTC)


TAF: missing

Weather observations and forecasts of more than 4000 airports (METAR and TAF reports).

The available stations are represented by yellow and red dots on the map.

Hover mouse over dot to see the name of the station.

Then click to see weather observations and forecasts.

To change the map : click on the green buttons with a black cross to zoom in, on the green button with a dash to zoom out, or on the green arrows for adjacent maps.


METAR-TAF: